Location: Killam
(52.7910°N, 111.8608°W)
Time: 09:50:54
(UTC+00:00)

NOAA 15 - Pass Details

Date: 19 December 2025
Orbit: 794 x 809 km, 98.5° (Epoch: 25 January)

Event Time Altitude Azimuth Distance (km) Brightness Sun altitude
Rises 13:55:24 0° 22° (NNE) 3,316 7.8 -14.0°
Reaches altitude 10° 13:58:07 10° 35° (NE) 2,379 7.2 -13.6°
Maximum altitude 14:02:31 27° 92° (E) 1,511 6.9 -13.0°
Drops below altitude 10° 14:06:52 10° 149° (SSE) 2,360 7.9 -12.4°
Sets 14:09:33 0° 162° (SSE) 3,284 8.4 -12.0°
